Home   Weather   Faridkot   Past weeks

Flag for India Past Weather in Faridkot, Punjab, India — Yesterday and Last 2 Weeks

Now
93 °F

Scattered clouds.


Feels Like: 103 °F
Forecast: 79 / 104 °F
Wind: No wind

Location: Lahore Airport

Current Time: Sep 27, 2016 at 4:08:38 PM

Latest Report: Sep 27, 2016 at 3:25 PM


Visibility: 2 mi

Pressure: 29.71 "Hg

Humidity: 53%

Dew Point: 73 °F

Location of FaridkotLocation

Past Weather in Faridkot — Graph

°F

Faridkot Temperature Yesterday

Maximum temperature yesterday: 95 °F (at 12:30 PM)
Minimum temperature yesterday: 79 °F (at 4:55 AM)
Average temperature yesterday: 86 °F

High & Low Weather Summary for the Past Weeks

 TemperatureHumidityPressure
High99 °F (Sep 19, 3:30 PM)89% (Sep 14, 9:25 AM)29.92 "Hg (Sep 14, 9:25 AM)
Low73 °F (Sep 23, 6:25 AM)17% (Sep 21, 8:59 AM)29.59 "Hg (Sep 20, 4:55 PM)
Average86 °F66%29.72 "Hg
* Reported Sep 12 1:55 PM — Sep 27 2:25 PM, Faridkot, Weather by CustomWeather, © 2016

Note: Actual official high and low records may vary slightly from our data, if they occured in-between our weather recording intervals... More about our weather records

Advertising

Faridkot Weather History for the Previous 24 Hours

Scroll right to see more
 ConditionsComfort  
Time TempWeatherWind HumidityBarometerVisibility
2:25 PM
Tue, Sep 27
95 °FScattered clouds.3 mph50%29.74 "Hg4 mi
1:55 PM95 °FScattered clouds.5 mph50%29.74 "Hg4 mi
1:25 PM95 °FScattered clouds.2 mph50%29.77 "Hg4 mi
12:55 PM93 °FScattered clouds.3 mph53%29.77 "Hg3 mi
12:25 PM93 °FScattered clouds.6 mph53%29.80 "Hg3 mi
11:55 AM91 °FPassing clouds.6 mph56%29.80 "Hg3 mi
11:25 AM91 °FClear.7 mph56%29.83 "Hg2 mi
10:55 AM90 °FClear.6 mph55%29.83 "Hg2 mi
10:25 AM88 °FClear.7 mph59%29.83 "Hg2 mi
9:55 AM88 °FClear.7 mph62%29.83 "Hg2 mi
9:25 AM86 °FClear.8 mph66%29.83 "Hg2 mi
8:55 AM84 °FClear.7 mph74%29.83 "Hg1 mi
8:25 AM82 °FFog.5 mph79%29.83 "Hg1 mi
7:55 AM81 °FFog.5 mph84%29.80 "Hg1 mi
6:55 AM81 °FFog.3 mph84%29.77 "Hg1 mi
6:25 AM81 °FFog.3 mph84%29.77 "Hg2 mi
5:55 AM81 °FClear.3 mph79%29.74 "Hg2 mi
5:25 AM81 °FClear.5 mph79%29.74 "Hg2 mi
4:55 AM81 °FClear.6 mph79%29.74 "Hg2 mi
4:25 AM81 °FClear.3 mph79%29.74 "Hg2 mi
3:55 AM81 °FClear.5 mph79%29.74 "Hg2 mi
2:55 AM82 °FClear.5 mph79%29.74 "Hg2 mi
2:25 AM82 °FClear.5 mph79%29.74 "Hg2 mi
1:55 AM82 °FClear.5 mph79%29.74 "Hg2 mi
1:25 AM82 °FClear.3 mph79%29.74 "Hg2 mi
12:55 AM82 °FClear.3 mph79%29.74 "Hg2 mi
12:25 AM82 °FClear.No wind79%29.74 "Hg2 mi
11:55 PM
Mon, Sep 26
84 °FPassing clouds.No wind74%29.74 "Hg2 mi
11:25 PM84 °FPassing clouds.3 mph74%29.74 "Hg2 mi
10:55 PM84 °FPassing clouds.3 mph74%29.74 "Hg2 mi
10:25 PM84 °FPassing clouds.5 mph74%29.74 "Hg2 mi
9:25 PM84 °FPassing clouds.6 mph74%29.74 "Hg2 mi
8:55 PM86 °FPassing clouds.5 mph75%29.74 "Hg2 mi
8:25 PM86 °FPassing clouds.3 mph75%29.74 "Hg2 mi
7:55 PM86 °FPassing clouds.3 mph75%29.74 "Hg2 mi
7:25 PM86 °FPassing clouds.5 mph75%29.71 "Hg2 mi
6:55 PM88 °FPassing clouds.5 mph70%29.71 "Hg2 mi
6:25 PM88 °FPassing clouds.5 mph70%29.71 "Hg2 mi
5:55 PM88 °FScattered clouds.5 mph70%29.71 "Hg2 mi
5:25 PM90 °FBroken clouds.7 mph63%29.71 "Hg2 mi
4:55 PM90 °FPartly sunny.7 mph63%29.71 "Hg1 mi
4:25 PM90 °FPartly sunny.7 mph63%29.71 "Hg2 mi
Weather by CustomWeather, © 2016

See weather overviewHow to use our weather pages